Regional Weather Roundup
Issued by NWS Spokane, WA

Home | Current Version | Previous Version | Text Only | Print | Product List | Glossary On
Versions: 1 2 3 4 5 6 7 8 9 10 11 12 13 14 15 16 17 18 19 20 21 22 23 24 25 26 27 28 29 30 31 32 33 34 35 36 37 38 39 40 41 42 43 44 45 46 47 48 49 50
000
NZUS01 KOTX 020110
RWROTX
EASTERN WASHINGTON/NORTHERN IDAHO ROUNDUP
NATIONAL WEATHER SERVICE, SPOKANE WA
600 PM PDT FRI AUG 01 2014

Note: "fair" indicated few or no clouds below 12,000 feet with no
significant weather and/or obstructions to visibility.

...NORTHEAST WASHINGTON AND NORTHERN IDAHO PANHANDLE...

CITY           SKY/WX    TMP DP  RH WIND       PRES   REMARKS
SPOKANE INTL   PTSUNNY   93  33  12 NE7       29.97F
SPOKANE DOWNTO MOSUNNY   96  36  12 VRB5      29.95F HX  91
COEUR D ALENE  PTSUNNY   93  43  17 NE7       29.95F
DEER PARK      PTSUNNY   92  40  16 NW7       29.97F
SANDPOINT      CLOUDY    82  57  42 CALM      29.98S

...SOUTHEAST WASHINGTON AND SOUTHERN IDAHO PANHANDLE...

CITY           SKY/WX    TMP DP  RH WIND       PRES   REMARKS
WALLA WALLA    SUNNY    100  46  16 W6        29.86F HX  96
PULLMAN/MOSCOW MOSUNNY   94  40  15 VRB3      29.99S HX  90
LEWISTON       MOSUNNY  100  41  13 NE8       29.88F HX  95
LOWELL           N/A     80  59  48 VRB5      29.98S

...COLUMBIA BASIN...

CITY           SKY/WX    TMP DP  RH WIND       PRES   REMARKS
EPHRATA        PTSUNNY   96  45  17 W13       29.89F HX  92
MOSES LAKE     MOSUNNY   99  43  14 SW7       29.88F HX  95
TRI CITIES     SUNNY     99  56  23 NW3       29.81F HX  97
HERMISTON      MOSUNNY   99  51  19 NE8       29.81F HX  96
PENDLETON      PTSUNNY   95  45  17 W9        29.88S HX  91

...EAST SLOPES CASCADES...

CITY           SKY/WX    TMP DP  RH WIND       PRES   REMARKS
THE DALLES     MOSUNNY   95  57  27 NW16      29.78F HX  94
YAKIMA         PTSUNNY   93  58  30 W5        29.88F HX  92
ELLENSBURG     MOSUNNY   91  54  28 W8        29.94F
STAMPEDE PASS  PTSUNNY   72  52  49 SW5       30.13
WENATCHEE      PTSUNNY   97  44  16 NW14      29.90S HX  93
OMAK           CLOUDY    97  40  14 S10       29.90F HX  92

...SOUTHERN BRITISH COLUMBIA...

CITY           SKY/WX    TMP DP  RH WIND       PRES   REMARKS
PENTICTON      PTSUNNY   88  55  33 N5        29.89F
CRANBROOK      PTSUNNY   91  34  13 S6        30.01F

...WESTERN MONTANA...

CITY           SKY/WX    TMP DP  RH WIND       PRES   REMARKS
MISSOULA       CLOUDY    87  40  19 VRB6      30.06R

...NEIGHBORING CITIES...

CITY           SKY/WX    TMP DP  RH WIND       PRES   REMARKS
SEATTLE        MOSUNNY   81  53  37 W10       29.97F
CALGARY        PTSUNNY   77  55  47 E16       30.18S



USA.gov is the U.S. government's official web portal to all federal, state and local government web resources and services.